Mackinac Island, MI

6:48 AM EDT on October 21, 2017 (GMT -0400)
Mackinac Island

Weather History for KMCD - May, 2013

Change the Weather History Date:

Wednesday, May 8, 2013

  Actual Average Record
Temperature  
Mean Temperature 59 °F -  
Max Temperature 74 °F 53 °F 74 °F (2013)
Min Temperature 44 °F 38 °F 30 °F (1976)
Degree Days  
Heating Degree Days 6    
Growing Degree Days 9 (Base 50)    
Moisture  
Dew Point 33 °F    
Average Humidity 33    
Maximum Humidity 66    
Minimum Humidity 20    
Precipitation  
Precipitation 0.00 in - - ()
Sea Level Pressure  
Sea Level Pressure 30.02 in    
Wind  
Wind Speed 6 mph (South)    
Max Wind Speed 9 mph    
Max Gust Speed -    
Visibility 10 miles    
Events      
Averages and records for this station are not official NWS values.
T = Trace of Precipitation, MM = Missing Value Source: NWS Daily Summary

Daily Weather History Graph

Daily Weather History Graph

Search for Another Location

Airport or City:

Trip Planner

Search our weather history database for the weather conditions in past years. The results will help you decide how hot, cold, wet, or windy it might be!

Date:

Astronomy

May. 08, 2013 Rise Set
Actual Time 6:15 AM EDT 8:55 PM EDT
Civil Twilight 5:41 AM EDT 9:29 PM EDT
Nautical Twilight 4:58 AM EDT 10:12 PM EDT
Astronomical Twilight 4:09 AM EDT 11:02 PM EDT
Moon 5:27 AM EDT (5/8) 7:50 PM EDT (5/8)
Length of Visible Light 15h 48m
Length of Day
14h 40m
Waning Crescent, 2% of the Moon is Illuminated
May 8
Waning Crescent
May 9
New
May 18
First Quarter
May 25
Full
May 31
Last Quarter

Hourly Weather History & Observations

Time (EDT) Temp. Windchill Dew Point Humidity Pressure Visibility Wind Dir Wind Speed Gust Speed Precip Events Conditions
12:15 AM 62.8 °F - 26.2 °F 25% 30.04 in 10.0 mi SE 9.2 mph - N/A   Clear
12:35 AM 62.4 °F - 26.4 °F 26% 30.04 in 10.0 mi SE 9.2 mph - N/A   Clear
12:55 AM 62.1 °F - 26.2 °F 26% 30.04 in 10.0 mi SE 9.2 mph - N/A   Clear
1:14 AM 61.9 °F - 25.7 °F 25% 30.04 in 10.0 mi SE 9.2 mph - N/A   Clear
1:35 AM 61.9 °F - 26.1 °F 26% 30.03 in 10.0 mi SSE 9.2 mph - N/A   Clear
1:55 AM 61.7 °F - 26.1 °F 26% 30.03 in 10.0 mi SSE 9.2 mph - N/A   Clear
2:15 AM 61.0 °F - 26.8 °F 27% 30.03 in 10.0 mi SSE 8.1 mph - N/A   Clear
2:35 AM 60.3 °F - 27.1 °F 28% 30.03 in 10.0 mi SSE 8.1 mph - N/A   Clear
2:55 AM 59.2 °F - 27.3 °F 30% 30.03 in 10.0 mi SE 8.1 mph - N/A   Clear
3:15 AM 59.0 °F - 27.5 °F 30% 30.03 in 10.0 mi SE 8.1 mph - N/A   Clear
3:35 AM 59.2 °F - 27.0 °F 29% 30.02 in 10.0 mi SE 8.1 mph - N/A   Clear
3:54 AM 59.2 °F - 27.0 °F 29% 30.02 in 10.0 mi SE 9.2 mph - N/A   Clear
4:15 AM 58.5 °F - 27.5 °F 31% 30.02 in 10.0 mi SE 8.1 mph - N/A   Clear
4:35 AM 59.4 °F - 27.5 °F 30% 30.02 in 10.0 mi SE 8.1 mph - N/A   Clear
4:55 AM 59.0 °F - 28.2 °F 31% 30.02 in 10.0 mi SE 6.9 mph - N/A   Clear
5:15 AM 54.5 °F - 31.1 °F 41% 30.02 in 10.0 mi SE 5.8 mph - N/A   Clear
5:35 AM 47.3 °F - 33.6 °F 59% 30.02 in 10.0 mi SE 6.9 mph - N/A   Clear
5:55 AM 45.9 °F 43.6 °F 33.3 °F 61% 30.02 in 10.0 mi SSE 4.6 mph - N/A   Clear
6:15 AM 44.8 °F 41.6 °F 34.0 °F 66% 30.02 in 10.0 mi SSE 5.8 mph - N/A   Clear
6:35 AM 46.6 °F - 33.6 °F 61% 30.02 in 10.0 mi SSE 4.6 mph - N/A   Clear
6:54 AM 46.8 °F - 34.2 °F 62% 30.03 in 10.0 mi SSE 4.6 mph - N/A   Clear
7:15 AM 48.9 °F - 35.8 °F 61% 30.04 in 10.0 mi SE 4.6 mph - N/A   Clear
7:35 AM 52.2 °F - 36.1 °F 54% 30.04 in 10.0 mi SE 3.5 mph - N/A   Clear
7:55 AM 56.5 °F - 35.6 °F 46% 30.03 in 10.0 mi SE 4.6 mph - N/A   Clear
8:15 AM 60.3 °F - 31.1 °F 33% 30.04 in 10.0 mi Calm Calm - N/A   Clear
8:35 AM 60.8 °F - 30.9 °F 32% 30.05 in 10.0 mi SSE 4.6 mph - N/A   Clear
8:55 AM 62.1 °F - 31.1 °F 31% 30.05 in 10.0 mi SSE 3.5 mph - N/A   Clear
9:15 AM 62.8 °F - 30.6 °F 30% 30.05 in 10.0 mi Calm Calm - N/A   Clear
9:35 AM 64.8 °F - 31.8 °F 29% 30.05 in 10.0 mi Calm Calm - N/A   Clear
9:55 AM 64.4 °F - 32.5 °F 30% 30.05 in 10.0 mi Calm Calm - N/A   Clear
10:15 AM 65.5 °F - 36.0 °F 34% 30.05 in 10.0 mi Calm Calm - N/A   Clear
10:35 AM 65.7 °F - 37.2 °F 35% 30.05 in 10.0 mi West 3.5 mph - N/A   Clear
10:55 AM 65.8 °F - 31.8 °F 28% 30.05 in 10.0 mi West 4.6 mph - N/A   Clear
11:15 AM 66.6 °F - 32.4 °F 28% 30.05 in 10.0 mi West 3.5 mph - N/A   Clear
11:34 AM 67.1 °F - 34.2 °F 30% 30.05 in 10.0 mi West 3.5 mph - N/A   Clear
11:55 AM 67.5 °F - 35.6 °F 31% 30.05 in 10.0 mi West 4.6 mph - N/A   Clear
12:15 PM 68.0 °F - 37.0 °F 32% 30.04 in 10.0 mi West 3.5 mph - N/A   Clear
12:35 PM 68.2 °F - 37.2 °F 32% 30.04 in 10.0 mi West 4.6 mph - N/A   Clear
12:55 PM 67.1 °F - 36.7 °F 33% 30.04 in 10.0 mi West 3.5 mph - N/A   Clear
1:14 PM 68.4 °F - 37.9 °F 33% 30.04 in 10.0 mi Calm Calm - N/A   Clear
1:35 PM 69.8 °F - 37.9 °F 31% 30.03 in 10.0 mi Calm Calm - N/A   Clear
1:55 PM 70.0 °F - 33.8 °F 26% 30.03 in 10.0 mi Calm Calm - N/A   Clear
2:14 PM 70.9 °F - 33.6 °F 25% 30.02 in 10.0 mi Calm Calm - N/A   Clear
2:35 PM 72.1 °F - 34.3 °F 25% 30.02 in 10.0 mi Calm Calm - N/A   Clear
2:55 PM 73.9 °F - 34.7 °F 24% 30.02 in 10.0 mi Calm Calm - N/A   Clear
3:14 PM 73.4 °F - 35.1 °F 25% 30.02 in 10.0 mi Calm Calm - N/A   Clear
3:35 PM 74.3 °F - 35.1 °F 24% 30.01 in 10.0 mi Calm Calm - N/A   Clear
3:55 PM 72.3 °F - 34.2 °F 25% 30.01 in 10.0 mi SSE 4.6 mph - N/A   Clear
4:14 PM 71.1 °F - 33.6 °F 25% 30.00 in 10.0 mi South 3.5 mph - N/A   Clear
4:35 PM 71.8 °F - 34.2 °F 25% 30.00 in 10.0 mi Calm Calm - N/A   Clear
4:55 PM 73.2 °F - 34.3 °F 24% 30.00 in 10.0 mi SSE 4.6 mph - N/A   Clear
5:14 PM 70.0 °F - 34.9 °F 28% 29.99 in 10.0 mi South 3.5 mph - N/A   Clear
5:35 PM 70.2 °F - 33.4 °F 26% 29.99 in 10.0 mi South 4.6 mph - N/A   Clear
5:55 PM 70.0 °F - 32.5 °F 25% 29.98 in 10.0 mi South 3.5 mph - N/A   Clear
6:14 PM 70.7 °F - 31.1 °F 23% 29.98 in 10.0 mi South 3.5 mph - N/A   Clear
6:35 PM 72.3 °F - 30.2 °F 21% 29.98 in 10.0 mi South 3.5 mph - N/A   Clear
6:55 PM 72.3 °F - 29.1 °F 20% 29.98 in 10.0 mi SSW 3.5 mph - N/A   Clear
7:14 PM 71.8 °F - 28.4 °F 20% 29.98 in 10.0 mi SW 3.5 mph - N/A   Clear
7:35 PM 70.7 °F - 32.0 °F 24% 29.97 in 10.0 mi Calm Calm - N/A   Clear
7:55 PM 70.0 °F - 32.2 °F 25% 29.97 in 10.0 mi Calm Calm - N/A   Clear
8:14 PM 67.3 °F - 33.3 °F 28% 29.98 in 10.0 mi WSW 4.6 mph - N/A   Clear
8:35 PM 66.2 °F - 33.6 °F 30% 29.98 in 10.0 mi West 4.6 mph - N/A   Clear
8:55 PM 65.3 °F - 34.0 °F 31% 29.97 in 10.0 mi West 4.6 mph - N/A   Clear
9:14 PM 64.0 °F - 35.6 °F 35% 29.97 in 10.0 mi West 3.5 mph - N/A   Clear
9:35 PM 61.7 °F - 36.9 °F 40% 29.98 in 10.0 mi West 4.6 mph - N/A   Clear
9:55 PM 60.8 °F - 36.9 °F 41% 29.98 in 10.0 mi West 4.6 mph - N/A   Clear
10:14 PM 59.5 °F - 37.6 °F 44% 29.99 in 10.0 mi WNW 4.6 mph - N/A   Clear
10:35 PM 59.0 °F - 37.4 °F 45% 29.99 in 10.0 mi WNW 5.8 mph - N/A   Clear
10:55 PM 61.0 °F - 34.2 °F 37% 29.99 in 10.0 mi WNW 5.8 mph - N/A   Scattered Clouds
11:15 PM 59.4 °F - 34.3 °F 39% 29.98 in 10.0 mi West 5.8 mph - N/A   Scattered Clouds
11:35 PM 57.7 °F - 35.1 °F 43% 29.98 in 10.0 mi West 6.9 mph - N/A   Clear
11:55 PM 56.5 °F - 36.0 °F 46% 29.98 in 10.0 mi WSW 6.9 mph - N/A   Clear